Location: ?????????
(54.7630°N, 39.4991°E)
Time: 18:08:27
(UTC+00:00)

Cosmos 2026 Rocket - Pass Details

Date: 14 April 2026
Orbit: 939 x 999 km, 82.9° (Epoch: 16 May)

Event Time Altitude Azimuth Distance (km) Brightness Sun altitude
Rises 22:41:29 0° 349° (N) 3,652 7.9 -23.4°
Reaches altitude 10° 22:43:59 10° 352° (N) 2,710 7.1 -23.3°
Maximum altitude 22:50:12 71° 76° (ENE) 1,029 4.1 -23.0°
Enters shadow 22:53:28 30° 154° (SSE) 1,679 4.9 -22.8°
